Starlink 3702

operational
NORAD ID: 52100 Int'l Des: 2022-029 Owner: SPXS Country: US Constellation: starlink
LEOCIRCULAR

About Starlink 3702

Description loading...

Live Position

Loading 3D Globe...

Upcoming Passes

Altitude History

Altitude vs Time

uPlot chart will show altitude changes over time

Two-Line Element Set

1 52100U 22029N 26012.88811411 .00000337 00000-0 39277-4 0 9991
2 52100 53.2197 339.6256 0001515 88.9553 271.1613 15.08837861212239
Epoch: Jan 12, 2026 • Age: 9 hours

Current Status

Altitude 542.5 km
Velocity 7.59 km/s
Sub-Earth Point -9.06°S, 116.22°E
Launch Date Mar 19, 2022
Age 3.8 years
Type internet

Technical Details

Classification Payload
Mass 297.00 kg
Dry Mass 275.00 kg
Total Mass 297.00 kg
Length 0.20 m
Diameter 2.80 m
Span 9.00 m
Shape Box + pan
Manufacturer SPXS
Bus Type Starlink
Phase Status In Orbit
Owner/State SPXS/US

Large Constellations

Loading constellations...